Location: Cañada de la Miga
(34.7595°N, 106.2317°W)
Time: 03:22:32
(UTC+00:00)

Tiros 1 despin weight - All Passes

Search period start: 28 November 2021 00:00
Search period end: 08 December 2021 00:00
Orbit: 593 x 641 km, 48.2° (Epoch: 27 November)

Date Brightness Start Highest point End Pass type
(mag) Time Alt. Az. Time Alt. Az. Time Alt. Az.
28 Nov - 01:03:23 10° NW 01:05:46 14° N 01:08:11 10° NNE visible
28 Nov - 02:45:22 10° NNW 02:48:38 20° NNE 02:51:56 10° ENE visible
28 Nov - 04:26:19 10° NW 04:30:46 68° NE 04:35:15 10° ESE night (unlit)
28 Nov - 06:08:49 10° W 06:11:56 18° SW 06:15:03 10° S night (unlit)
28 Nov - 20:13:09 10° S 20:16:18 19° SE 20:19:26 10° E daylight
28 Nov - 21:53:05 10° WSW 21:57:27 63° NW 22:01:50 10° NE daylight
28 Nov - 23:36:28 10° WNW 23:39:37 19° NNW 23:42:47 10° NNE daylight
29 Nov - 01:20:04 10° NNW 01:22:30 14° N 01:24:57 10° NE visible
29 Nov - 03:01:18 10° NW 03:05:09 28° NNE 03:09:02 10° E visible
29 Nov - 04:42:29 10° WNW 04:46:54 60° SW 04:51:21 10° SE night (unlit)
29 Nov - 20:28:04 10° SSW 20:32:13 40° SE 20:36:21 10° ENE daylight
29 Nov - 22:09:42 10° W 22:13:45 35° NNW 22:17:49 10° NE daylight
29 Nov - 23:53:40 10° NW 23:56:16 15° N 23:58:53 10° NNE daylight
30 Nov - 01:36:17 10° NNW 01:39:11 17° NNE 01:42:04 10° NE visible
30 Nov - 03:17:14 10° NW 03:21:32 46° NNE 03:25:51 10° ESE visible
30 Nov - 04:59:03 10° WNW 05:02:54 28° SW 05:06:46 10° SSE night (unlit)
30 Nov - 19:05:40 10° SSE 19:07:18 12° SE 19:08:57 10° ESE daylight
30 Nov - 20:43:51 10° SW 20:48:16 86° SE 20:52:41 10° NE daylight
30 Nov - 22:26:41 10° WNW 22:30:12 23° NNW 22:33:44 10° NNE daylight
01 Dec - 00:10:38 10° NNW 00:12:59 14° N 00:15:19 10° NNE daylight
01 Dec - 01:52:16 10° NNW 01:55:46 22° NNE 01:59:16 10° ENE visible
01 Dec - 03:33:17 10° NW 03:37:44 88° NE 03:42:15 10° SE visible
01 Dec - 05:16:36 10° W 05:18:46 13° SW 05:20:56 10° SSW night (unlit)
01 Dec - 19:19:28 10° S 19:23:10 26° SE 19:26:50 10° ENE daylight
01 Dec - 21:00:11 10° WSW 21:04:28 49° NNW 21:08:46 10° NE daylight
01 Dec - 22:43:52 10° NW 22:46:47 17° NNW 22:49:42 10° NNE daylight
02 Dec - 00:27:07 10° NNW 00:29:41 15° N 00:32:15 10° NE visible
02 Dec - 02:08:11 10° NW 02:12:14 33° NNE 02:16:17 10° E visible
02 Dec - 03:49:34 10° WNW 03:53:49 44° SW 03:58:05 10° SSE night (unlit)
02 Dec - 19:34:48 10° SW 19:39:08 55° SE 19:43:27 10° ENE daylight
02 Dec - 21:16:57 10° W 21:20:50 29° NNW 21:24:42 10° NE daylight
02 Dec - 23:01:01 10° NW 23:03:27 14° N 23:05:53 10° NNE daylight
03 Dec - 00:43:14 10° NNW 00:46:20 18° NNE 00:49:27 10° ENE visible
03 Dec - 02:24:09 10° NW 02:28:32 59° NE 02:32:56 10° ESE visible
03 Dec - 04:06:23 10° W 04:09:45 21° SW 04:13:09 10° S night (unlit)
03 Dec - 18:11:19 10° S 18:14:08 17° SE 18:16:57 10° E daylight
03 Dec - 19:50:49 10° WSW 19:55:14 73° NW 19:59:39 10° NE daylight
03 Dec - 21:34:02 10° WNW 21:37:19 20° NNW 21:40:37 10° NNE daylight
03 Dec - 23:17:48 10° NNW 23:20:10 14° N 23:22:32 10° NE daylight
04 Dec - 00:59:09 10° NW 01:02:52 26° NNE 01:06:36 10° E visible
04 Dec - 02:40:17 10° WNW 02:44:41 70° SW 02:49:08 10° SE visible
04 Dec - 18:25:59 10° SSW 18:30:02 35° SE 18:34:04 10° ENE daylight
04 Dec - 20:07:20 10° W 20:11:30 39° NNW 20:15:39 10° NE daylight
04 Dec - 21:51:15 10° NW 21:53:56 16° N 21:56:38 10° NNE daylight
04 Dec - 23:34:07 10° NNW 23:36:51 16° N 23:39:36 10° NE daylight
05 Dec - 01:15:05 10° NW 01:19:16 41° NNE 01:23:28 10° E visible
05 Dec - 02:56:44 10° WNW 03:00:43 33° SW 03:04:42 10° SSE visible
05 Dec - 18:41:37 10° SW 18:46:04 75° SE 18:50:29 10° NE daylight
05 Dec - 20:24:14 10° WNW 20:27:55 25° NNW 20:31:34 10° NNE daylight
05 Dec - 22:08:17 10° NW 22:10:38 14° N 22:12:59 10° NNE daylight
05 Dec - 23:50:07 10° NNW 23:53:28 21° NNE 23:56:49 10° ENE daylight
06 Dec - 01:31:06 10° NW 01:35:31 77° NE 01:39:57 10° ESE visible
06 Dec - 03:13:57 10° W 03:16:36 16° SW 03:19:14 10° SSW visible
06 Dec - 17:17:29 10° S 17:20:59 22° SE 17:24:26 10° E daylight
06 Dec - 18:57:51 10° WSW 19:02:14 56° NNW 19:06:35 10° NE daylight
06 Dec - 20:41:24 10° WNW 20:44:28 18° NNW 20:47:31 10° NNE daylight
06 Dec - 22:24:53 10° NNW 22:27:21 14° N 22:29:49 10° NE daylight
07 Dec - 00:06:02 10° NW 00:09:57 30° NNE 00:13:52 10° E daylight
07 Dec - 01:47:19 10° WNW 01:51:37 52° SW 01:55:55 10° SE visible
07 Dec - 17:32:37 10° SSW 17:36:55 47° SE 17:41:12 10° ENE daylight
07 Dec - 19:14:32 10° W 19:18:32 32° NNW 19:22:32 10° NE daylight
07 Dec - 20:58:35 10° NW 21:01:07 15° N 21:03:38 10° NNE daylight
07 Dec - 22:41:02 10° NNW 22:44:00 17° NNE 22:46:58 10° ENE daylight
